Location: Banff
(51.1667°N, 115.5667°W)
Time: 11:02:05
(UTC+00:00)

Transit 4A - All Passes

Search period start: 30 November 2020 00:00
Search period end: 10 December 2020 00:00
Orbit: 862 x 982 km, 66.8° (Epoch: 29 November)

Date Brightness Start Highest point End Pass type
(mag) Time Alt. Az. Time Alt. Az. Time Alt. Az.
30 Nov - 01:30:38 10° WNW 01:35:18 22° WSW 01:39:51 10° SSW visible
30 Nov - 14:54:57 10° S 15:00:54 44° ESE 15:06:57 10° NE daylight
30 Nov - 16:41:02 10° WSW 16:47:16 53° NW 16:53:34 10° NE daylight
30 Nov - 18:30:05 10° WNW 18:35:08 23° NNW 18:40:11 10° NNE daylight
30 Nov - 20:19:09 10° NW 20:23:50 20° N 20:28:29 10° NE daylight
30 Nov - 22:06:11 10° NNW 22:12:06 37° NE 22:17:55 10° ESE daylight
30 Nov - 23:52:38 10° NW 23:59:00 70° WSW 00:05:10 10° SSE daylight
01 Dec - 01:40:50 10° WNW 01:44:15 15° WSW 01:47:37 10° SW visible
01 Dec - 13:22:31 10° ESE 13:25:00 12° E 13:27:30 10° ENE visible
01 Dec - 15:03:52 10° SSW 15:10:06 60° ESE 15:16:25 10° NE daylight
01 Dec - 16:50:46 10° WSW 16:56:48 42° NW 17:02:54 10° NNE daylight
01 Dec - 18:40:08 10° WNW 18:44:56 21° NNW 18:49:44 10° NE daylight
01 Dec - 20:28:47 10° NW 20:33:40 22° NNE 20:38:30 10° ENE daylight
01 Dec - 22:15:32 10° NNW 22:21:41 46° NE 22:27:41 10° ESE daylight
02 Dec - 00:02:05 10° NW 00:08:13 51° WSW 00:14:12 10° SSE visible
02 Dec - 13:29:47 10° SE 13:33:55 18° ESE 13:38:06 10° ENE visible
02 Dec - 15:13:01 10° SSW 15:19:23 80° ESE 15:25:50 10° NE daylight
02 Dec - 17:00:37 10° W 17:06:25 34° NNW 17:12:15 10° NNE daylight
02 Dec - 18:50:08 10° NW 18:54:46 20° N 18:59:23 10° NE daylight
02 Dec - 20:38:18 10° NNW 20:43:27 24° NNE 20:48:32 10° ENE daylight
02 Dec - 22:24:51 10° NW 22:31:11 58° NE 22:37:20 10° SE daylight
03 Dec - 00:11:37 10° NW 00:17:23 37° WSW 00:22:59 10° S visible
03 Dec - 13:37:50 10° SSE 13:42:55 26° ESE 13:48:04 10° NE visible
03 Dec - 15:22:19 10° SW 15:28:43 79° NW 15:35:12 10° NE daylight
03 Dec - 17:10:34 10° W 17:16:05 29° NNW 17:21:37 10° NNE daylight
03 Dec - 19:00:04 10° NW 19:04:37 20° N 19:09:09 10° NE daylight
03 Dec - 20:47:45 10° NNW 20:53:12 28° NNE 20:58:32 10° E daylight
03 Dec - 22:34:12 10° NW 22:40:38 75° NE 22:46:51 10° SE daylight
04 Dec - 00:21:17 10° NW 00:26:27 27° WSW 00:31:31 10° SSW visible
04 Dec - 13:46:19 10° S 13:52:00 36° ESE 13:57:46 10° NE visible
04 Dec - 15:31:49 10° SW 15:38:08 62° NW 15:44:32 10° NE daylight
04 Dec - 17:20:35 10° WNW 17:25:48 25° NNW 17:31:03 10° NNE daylight
04 Dec - 19:09:53 10° NW 19:14:28 20° N 19:19:02 10° NE daylight
04 Dec - 20:57:08 10° NNW 21:02:53 33° NNE 21:08:30 10° E daylight
04 Dec - 22:43:34 10° NW 22:49:59 84° SW 22:56:12 10° SSE daylight
05 Dec - 00:31:12 10° WNW 00:35:28 19° WSW 00:39:39 10° SSW visible
05 Dec - 13:55:04 10° S 14:01:09 49° ESE 14:07:18 10° NE visible
05 Dec - 15:41:27 10° WSW 15:47:38 48° NW 15:53:52 10° NNE daylight
05 Dec - 17:30:38 10° WNW 17:35:36 23° NNW 17:40:32 10° NE daylight
05 Dec - 19:19:34 10° NW 19:24:19 21° N 19:29:01 10° ENE daylight
05 Dec - 21:06:30 10° NNW 21:12:30 40° NE 21:18:22 10° ESE daylight
05 Dec - 22:52:59 10° NW 22:59:16 63° WSW 23:05:21 10° SSE daylight
06 Dec - 00:41:40 10° WNW 00:44:23 13° W 00:47:04 10° SW visible
06 Dec - 12:21:54 10° SE 12:25:09 14° E 12:28:24 10° ENE visible
06 Dec - 14:04:04 10° SSW 14:10:22 66° ESE 14:16:45 10° NE visible
06 Dec - 15:51:14 10° WSW 15:57:12 39° NW 16:03:12 10° NNE daylight
06 Dec - 17:40:41 10° WNW 17:45:25 21° N 17:50:07 10° NE daylight
06 Dec - 19:29:10 10° NW 19:34:07 23° NNE 19:39:02 10° ENE daylight
06 Dec - 21:15:50 10° NNW 21:22:03 50° NE 21:28:06 10° ESE daylight
06 Dec - 23:02:27 10° NW 23:08:28 46° WSW 23:14:18 10° S daylight
07 Dec - 12:29:33 10° SSE 12:34:05 21° ESE 12:38:41 10° ENE visible
07 Dec - 14:13:16 10° SW 14:19:40 87° SE 14:26:09 10° NE visible
07 Dec - 16:01:07 10° W 16:06:50 32° NNW 16:12:33 10° NNE daylight
07 Dec - 17:50:40 10° NW 17:55:15 20° N 17:59:49 10° NE daylight
07 Dec - 19:38:39 10° NNW 19:43:54 25° NNE 19:49:04 10° ENE daylight
07 Dec - 21:25:10 10° NW 21:31:32 64° NE 21:37:42 10° SE daylight
07 Dec - 23:12:02 10° NW 23:17:35 33° WSW 23:23:00 10° S daylight
08 Dec - 12:37:47 10° SSE 12:43:07 29° ESE 12:48:31 10° NE visible
08 Dec - 14:22:39 10° SW 14:29:02 73° NW 14:35:30 10° NE visible
08 Dec - 16:11:06 10° W 16:16:31 28° NNW 16:21:56 10° NNE daylight
08 Dec - 18:00:33 10° NW 18:05:06 20° N 18:09:37 10° NE daylight
08 Dec - 19:48:05 10° NNW 19:53:37 29° NNE 19:59:03 10° E daylight
08 Dec - 21:34:31 10° NW 21:40:56 83° NE 21:47:09 10° SE daylight
08 Dec - 23:21:46 10° WNW 23:26:38 24° WSW 23:31:24 10° SSW daylight
09 Dec - 12:46:22 10° S 12:52:13 40° ESE 12:58:08 10° NE visible
09 Dec - 14:32:12 10° WSW 14:38:29 56° NW 14:44:50 10° NE visible
09 Dec - 16:21:08 10° WNW 16:26:16 24° NNW 16:31:23 10° NNE daylight
09 Dec - 18:10:20 10° NW 18:14:57 20° N 18:19:32 10° NE daylight
09 Dec - 19:57:27 10° NNW 20:03:17 35° NNE 20:08:59 10° E daylight
09 Dec - 21:43:53 10° NW 21:50:16 76° SW 21:56:26 10° SSE daylight
09 Dec - 23:31:49 10° WNW 23:35:37 17° WSW 23:39:20 10° SW daylight
